STARLINK-4200, 52876

Orbit data source: Space-Track

STARLINK-4200, 52876 is a payload satellite owned by SpaceX/Seattle (US) in LEO that was launched on Fri, 17 Jun 2022 UTC via an FALCON 9 launch vehicle from the Air Force Eastern Test Range (AFETR). Payload-class satellites include a variety of spacecraft equipped with specific instruments for various scientific and technological missions. These include communications satellites like Starlink; space stations such as the ISS; scientific satellites like the Hubble; Earth observation satellites from companies like Planet Labs, Umbra, and HawkEye 360; GPS; miniature CubeSats for education and research; and military/defense satellites.

Loading next visibility...
Identifier
52876, 2022-062AY
Orbit
LEO
Country
Flag of USUS
Related business
Manufacturer
SpaceX/Seattle
Mission
Operational Commercial Communications
Bus & Motor
STARLINK, Unknown motor
Mass
297 kg wet, ~275 kg dry
Launch date (UTC)
2022-06-17 (3 years ago)
Launch vehicle
FALCON 9
Launch site
Air Force Eastern Test Range (AFETR)
Object type
Payload
Rocket body
Debris
Shape & HBR
Box + 1 Pan, 10.1 m
Radar Cross Section
13.562 m², Large (>1 m²)

Expand to show TLE details & history
Last TLE update: 1 day ago

TLE from 1 day ago
0 STARLINK-4200
1 52876U 22062AY  25348.50834367  .00003007  00000-0  20689-3 0  9996
2 52876  53.2199  36.5156 0001543  99.2369 260.8798 15.08846562193206
Epoch: 2025-12-14T12:12Z
TLE epoch observation values (Epoch: 2025-12-14T12:12:00.893Z)
Latitude
0.00002°
Longitude
130.09164°
Altitude
540.79 km
Speed
7.593 km/s
True Right ascension
02h 26m 03s
True Declination
0° 00' 00"
Sunlit
Object was in full shadow at epoch
Visualization orbit readout
Latitude
Unknown
Longitude
Unknown
Altitude
Unknown
Speed
Unknown
Apparent Right ascension
Unknown
Apparent Declination
Unknown
Sunlit
N/A
Visualization observer readout
Local Sidereal Time
13:19:04
Azimuth
Unknown
Elevation
Unknown
Doppler factor
Unknown
Orbital elements
Apogee altitude
541.035 km
Perigee altitude
538.9 km
Semi-major axis
6,918.105 km
Eccentricity
0.00015
Inclination
53.2199°
RAAN
36.5156°
Arg. of periapsis
99.2369°
True anomaly
260.86234°
Mean anomaly
260.8798°
Eccentric anomaly
260.87107°
Mean motion
3.77192 °/min
Orbital period
95.44 mins
BSTAR
0.00020689
Loading maneuver chart data...
Computing Atmospheric mass density...
Loading historical data...
Loading historical data...
Loading historical data...
Loading historical data...
Loading historical data...
Loading historical data...
Loading historical data...

Documentation

Showing up to 5 results
|